Wind_Speed
7 6 5 5 4 3 3 2 0 1 1 2 3 4 5 5 5 6 6 7 6 6 7 6 6 6 6 5 4 5 6 6 5 6 7 7 7 6 6 6 6 7 7 7
8 8 8 7 6 4 3 2 2 2 2 1 2 3 4 4 4 5 5 6 6 6 6 5 6 6 6 5 5 5 5 5 6 6 7 7 7 6 6 5 6 6 7 7
11 11 10 8 7 5 4 4 3 3 3 2 2 3 4 3 4 4 5 5 6 6 5 5 5 6 6 5 5 5 5 5 5 6 6 7 6 6 6 6 6 6 6 6
13 12 11 9 8 7 6 6 5 4 3 3 2 3 5 4 3 4 5 5 5 6 6 5 5 6 6 5 5 5 5 6 6 6 6 7 7 6 6 6 7 6 6 6
13 12 11 11 10 9 8 6 5 5 4 4 4 3 5 5 4 5 5 5 6 6 7 7 6 6 6 6 5 5 6 6 6 7 7 7 7 7 7 7 8 8 8 8
14 13 12 11 11 10 8 7 6 5 5 5 5 4 5 6 5 5 6 6 6 7 7 7 7 7 7 6 6 6 6 6 7 7 7 7 8 8 8 9 9 9 9 8
15 14 13 13 12 10 9 7 6 6 6 7 6 5 6 6 6 7 7 6 6 7 7 8 8 8 9 8 8 8 7 7 7 8 9 9 9 9 9 9 10 10 9 9
15 14 14 13 12 12 11 8 8 7 6 8 8 6 7 7 8 8 7 7 7 7 8 8 9 9 10 10 10 10 10 9 9 9 10 10 10 10 10 10 11 11 11 11
15 15 15 14 13 13 12 10 10 8 7 7 8 9 8 8 8 8 8 8 9 8 9 9 10 10 10 11 11 11 11 11 11 12 12 11 11 11 12 12 12 12 12 13
17 16 15 13 13 13 13 12 10 8 8 8 9 9 10 8 9 9 9 9 10 10 10 10 10 11 11 11 12 13 13 13 13 14 14 13 13 13 13 13 13 13 13 14
17 16 15 15 14 14 13 12 11 10 10 9 10 11 11 10 10 10 11 11 11 11 11 12 12 12 12 13 13 13 13 14 14 15 15 15 15 15 15 16 15 16 16 15
18 16 15 16 16 15 14 13 12 12 13 12 11 12 12 12 11 11 11 12 12 12 13 13 13 13 14 14 14 14 15 15 15 15 16 16 16 16 16 17 17 18 18 18
19 17 15 15 16 15 15 14 13 13 13 12 12 13 13 12 12 12 12 12 13 13 13 13 14 14 15 15 15 16 16 16 16 17 17 17 17 17 18 18 18 18 18 19
19 18 16 15 15 15 15 15 14 14 12 13 13 13 13 13 12 13 13 13 13 14 14 14 15 16 16 16 17 17 17 18 18 18 18 18 19 19 19 19 20 21 21 21
20 19 17 17 17 16 16 15 15 15 14 14 14 14 14 14 14 14 14 14 15 15 15 16 17 17 17 18 18 19 19 20 20 19 19 20 21 21 22 22 22 23 23 23
21 20 18 18 18 18 17 17 16 16 16 16 16 16 15 15 16 16 16 16 16 17 17 17 18 18 18 19 20 20 21 22 22 22 22 23 23 24 24 24 24 24 23 24
22 20 19 18 19 19 19 18 18 18 18 17 17 17 17 17 17 17 17 18 18 18 19 19 20 20 20 20 21 21 23 23 24 24 25 25 25 25 26 25 25 25 25 26
23 22 21 20 20 20 20 19 20 20 19 19 20 20 20 19 19 19 19 19 19 19 20 21 22 23 22 23 23 24 25 25 25 25 25 26 26 26 26 27 26 27 27 28
23 23 22 21 21 21 21 20 20 20 21 21 22 22 21 21 21 21 21 20 21 21 22 22 23 23 23 24 25 26 26 26 27 27 27 28 28 28 28 28 28 29 29 28
24 23 23 23 22 22 23 22 21 21 22 21 22 22 22 22 23 23 23 23 24 24 24 24 25 25 25 26 26 26 26 27 27 27 27 28 28 29 29 29 30 30 30 30
25 25 25 24 24 24 25 24 23 23 22 21 22 22 22 23 24 24 24 24 25 25 25 26 26 26 27 27 26 26 26 26 27 27 28 28 27 28 29 29 30 31 31 31
27 27 26 25 25 25 25 24 24 23 23 23 23 23 23 24 24 25 25 25 26 27 27 27 27 27 27 27 27 27 27 27 27 28 29 29 29 29 29 30 30 30 30 30
28 27 27 26 26 26 24 24 23 23 24 24 24 24 24 25 26 26 27 27 28 28 28 28 28 28 28 28 28 28 28 28 28 29 30 30 30 30 30 30 30 30 30 30
28 27 27 26 26 26 25 24 24 24 24 24 25 25 26 26 27 27 28 28 29 30 29 29 29 29 29 29 29 29 30 29 29 30 31 31 32 32 31 30 30 30 29 29
28 27 27 26 26 26 25 25 25 26 26 25 26 26 26 27 27 28 29 29 29 29 30 30 30 30 30 30 31 31 31 31 31 31 32 32 32 32 32 31 30 30 29 29
28 27 27 27 26 26 26 26 26 26 26 26 27 27 28 28 28 29 30 30 30 30 31 31 32 31 31 31 32 32 32 31 32 32 31 31 31 31 31 30 30 29 29 29
Wind_Direction
190 188 191 195 184 184 190 185 233 321 347 16 13 6 4 5 7 10 9 8 12 16 20 23 25 24 22 25 29 28 22 24 30 32 32 31 34 37 34 31 29 28 26 26
201 208 211 214 216 217 215 221 249 275 284 319 354 359 357 1 1 4 6 5 5 5 11 12 12 13 16 26 34 31 28 26 27 27 26 26 27 27 22 17 14 16 18 18
210 217 219 221 228 231 230 229 245 263 270 282 322 336 330 342 347 353 357 358 0 358 358 360 360 3 8 18 26 26 20 19 17 16 17 16 17 14 6 2 357 357 0 2
220 217 218 224 230 228 234 237 248 255 264 276 284 295 303 310 328 336 341 341 344 345 347 348 349 351 355 360 7 10 8 5 360 357 359 1 2 2 359 351 345 343 341 339
221 218 220 226 229 229 235 243 249 253 260 271 279 264 286 294 304 317 323 322 325 328 330 332 334 337 339 342 346 349 349 350 347 347 346 344 346 347 343 337 341 343 336 334
225 226 225 227 230 232 237 243 252 258 267 276 276 268 277 281 292 305 307 309 314 315 318 326 324 324 326 328 329 331 334 335 335 334 334 333 333 333 334 330 331 331 330 328
231 232 231 229 229 232 232 238 259 266 270 275 274 267 263 272 286 297 300 303 310 311 317 321 321 318 317 319 321 321 320 320 321 323 322 323 324 325 327 326 324 324 322 320
235 236 234 235 231 232 231 230 238 249 263 275 276 273 268 275 284 290 293 293 300 302 308 313 314 313 312 313 315 317 317 312 310 312 313 314 316 318 319 319 319 318 318 316
231 236 238 237 233 231 238 238 245 247 254 264 268 279 284 283 285 288 287 288 291 297 304 305 307 308 308 309 310 309 313 310 309 311 311 308 309 311 312 312 315 317 319 318
230 234 237 234 235 238 242 244 245 243 251 262 271 280 284 287 288 289 289 288 286 289 296 297 298 300 301 302 305 307 309 309 309 309 310 306 302 305 307 307 309 311 312 313
226 231 234 233 235 241 243 246 248 248 249 255 266 273 280 284 286 288 286 282 283 283 289 290 289 291 292 295 299 303 305 306 305 304 304 305 302 303 308 307 306 307 306 308
223 226 231 237 241 242 243 246 247 252 258 259 261 270 277 279 282 284 285 284 286 286 286 285 284 286 287 289 293 295 297 299 300 301 300 301 302 302 305 308 307 305 303 303
226 227 231 241 246 245 246 248 249 251 260 263 265 273 276 276 276 280 283 285 289 289 287 284 284 284 285 289 291 292 292 293 296 297 298 299 298 298 302 304 304 305 304 302
228 231 230 234 238 243 246 247 248 250 254 263 267 270 274 276 271 275 278 280 285 288 288 287 286 285 285 287 291 292 292 292 293 295 296 298 298 299 300 300 300 301 301 300
227 232 235 237 242 244 248 250 247 249 253 257 266 270 272 273 270 275 279 280 281 285 287 288 286 286 288 287 288 290 291 292 294 294 296 297 299 299 299 299 299 299 299 298
227 231 236 240 244 246 246 246 248 251 254 259 264 267 269 270 270 272 277 279 281 284 288 290 289 288 288 288 288 290 291 292 292 292 294 296 297 297 297 297 297 298 298 297
229 233 237 243 246 249 249 248 249 252 255 257 261 266 268 269 270 273 275 277 281 283 286 289 290 290 287 286 285 286 289 290 291 292 294 295 296 296 297 297 297 297 296 296
234 235 239 244 249 252 252 251 251 252 254 257 260 265 267 269 271 274 277 277 278 281 284 286 287 288 286 284 283 284 286 288 291 291 292 293 296 296 295 294 294 295 295 295
237 239 242 246 250 255 257 256 256 256 258 260 261 264 266 268 271 272 274 277 280 282 284 286 288 286 285 285 285 285 287 289 291 292 291 293 293 293 294 293 293 294 294 296
239 241 244 247 249 254 257 258 259 260 261 261 262 264 266 269 271 273 275 277 279 280 282 284 288 289 288 288 287 288 289 289 291 293 294 295 294 294 295 295 294 294 293 295
240 242 245 248 250 254 257 259 261 260 261 261 263 264 267 270 271 274 275 275 278 279 281 284 286 288 290 288 288 289 290 289 291 293 294 296 296 296 294 294 295 295 294 295
241 244 245 247 249 253 257 260 262 261 261 262 263 266 269 271 273 275 275 274 276 279 281 282 283 284 287 287 287 288 289 290 291 292 293 295 297 296 295 295 294 294 295 295
241 243 246 247 250 255 258 260 262 263 262 263 264 265 269 271 274 275 276 276 277 279 280 281 281 283 285 286 287 288 289 290 291 292 293 294 294 295 296 296 295 295 295 296
241 242 245 247 250 253 256 258 260 262 263 264 265 267 270 273 276 278 278 279 279 280 281 282 283 284 285 285 285 287 288 289 291 291 293 294 293 293 295 295 295 294 295 296
242 244 246 248 251 253 256 258 261 262 262 263 265 267 271 275 277 279 280 282 283 283 283 284 285 285 285 284 285 286 287 288 289 292 293 294 294 293 293 293 294 294 294 295
242 244 246 249 252 255 257 260 262 263 264 265 267 269 272 275 278 281 283 283 283 284 284 285 285 285 285 285 285 286 287 289 290 292 293 294 294 293 293 293 293 295 295 295
Height
5920 5922 5923 5924 5924 5925 5926 5926 5926 5925 5924 5923 5923 5922 5921 5919 5918 5918 5917 5915 5914 5913 5911 5910 5908 5906 5905 5903 5902 5901 5899 5898 5897 5895 5894 5893 5892 5891 5890 5888 5887 5886 5885 5883
5920 5921 5922 5923 5923 5924 5925 5926 5925 5925 5924 5923 5922 5922 5921 5920 5919 5918 5917 5916 5915 5913 5912 5910 5909 5907 5905 5904 5903 5901 5900 5899 5897 5896 5895 5893 5892 5891 5890 5889 5888 5887 5885 5884
5918 5920 5920 5921 5922 5923 5924 5925 5925 5924 5923 5923 5923 5922 5921 5920 5919 5918 5917 5916 5915 5914 5912 5911 5909 5908 5906 5904 5903 5902 5901 5899 5898 5897 5895 5894 5893 5892 5891 5890 5888 5887 5886 5884
5915 5917 5918 5920 5921 5922 5923 5923 5923 5923 5923 5923 5923 5924 5922 5920 5919 5918 5917 5916 5915 5914 5913 5911 5910 5908 5906 5905 5904 5902 5901 5900 5898 5897 5896 5894 5893 5892 5891 5890 5888 5887 5886 5884
5913 5914 5916 5917 5919 5920 5921 5921 5921 5922 5922 5923 5922 5923 5922 5920 5919 5918 5917 5916 5915 5914 5912 5911 5910 5908 5907 5905 5904 5902 5901 5900 5899 5897 5896 5895 5893 5892 5891 5889 5888 5887 5885 5884
5910 5912 5913 5915 5916 5917 5918 5920 5920 5920 5922 5922 5921 5921 5921 5919 5918 5918 5916 5915 5914 5913 5912 5910 5909 5908 5906 5905 5903 5902 5901 5900 5898 5897 5896 5894 5893 5891 5890 5889 5887 5886 5884 5883
5908 5909 5910 5912 5913 5915 5916 5919 5921 5921 5922 5921 5919 5919 5920 5918 5917 5916 5915 5914 5913 5912 5911 5910 5908 5907 5906 5904 5903 5901 5900 5899 5897 5896 5895 5893 5892 5890 5889 5888 5886 5885 5883 5881
5905 5907 5907 5908 5910 5912 5914 5916 5919 5921 5921 5920 5917 5917 5918 5916 5915 5914 5913 5912 5911 5910 5909 5908 5907 5905 5904 5903 5901 5900 5898 5897 5896 5895 5893 5892 5891 5889 5888 5886 5884 5883 5881 5880
5902 5904 5905 5905 5907 5909 5911 5912 5914 5916 5917 5917 5917 5915 5914 5913 5912 5912 5911 5910 5910 5909 5908 5907 5905 5904 5903 5901 5900 5898 5897 5896 5894 5893 5892 5890 5889 5887 5886 5884 5882 5881 5879 5877
5899 5901 5901 5902 5904 5906 5908 5909 5911 5913 5914 5915 5915 5914 5913 5911 5910 5910 5909 5908 5907 5906 5906 5904 5903 5902 5901 5899 5898 5897 5895 5894 5892 5891 5889 5888 5886 5885 5883 5881 5880 5878 5876 5875
5895 5898 5899 5900 5901 5903 5905 5906 5907 5909 5910 5913 5913 5914 5910 5908 5908 5907 5906 5905 5905 5904 5903 5902 5901 5900 5899 5897 5896 5894 5893 5891 5890 5888 5887 5885 5883 5882 5880 5878 5877 5875 5873 5871
5890 5894 5896 5897 5898 5899 5901 5902 5904 5907 5906 5907 5909 5911 5906 5905 5904 5904 5903 5902 5902 5901 5900 5899 5898 5897 5896 5895 5893 5892 5890 5889 5887 5886 5884 5882 5880 5878 5877 5875 5873 5871 5869 5868
5887 5890 5892 5894 5896 5896 5897 5898 5900 5902 5903 5904 5905 5907 5903 5902 5901 5900 5900 5899 5898 5897 5896 5895 5894 5893 5892 5891 5890 5889 5887 5885 5884 5882 5880 5879 5877 5875 5873 5872 5870 5868 5865 5863
5883 5885 5889 5892 5892 5892 5893 5894 5896 5898 5899 5900 5900 5901 5899 5898 5898 5897 5896 5895 5895 5894 5893 5892 5891 5889 5888 5887 5886 5885 5883 5881 5879 5878 5876 5875 5873 5871 5869 5867 5865 5863 5861 5859
5878 5881 5883 5885 5886 5888 5889 5891 5892 5893 5895 5896 5896 5896 5895 5894 5894 5893 5892 5892 5891 5890 5889 5888 5887 5885 5884 5883 5882 5880 5879 5877 5875 5873 5871 5870 5868 5866 5864 5862 5860 5858 5856 5854
5874 5876 5879 5881 5882 5883 5884 5886 5888 5889 5890 5891 5891 5891 5891 5890 5890 5890 5889 5888 5887 5886 5885 5884 5882 5881 5879 5878 5876 5875 5873 5872 5870 5868 5866 5864 5863 5860 5858 5856 5854 5852 5850 5848
5869 5872 5874 5876 5877 5878 5880 5882 5883 5884 5885 5886 5886 5887 5886 5886 5886 5885 5884 5884 5883 5882 5881 5879 5878 5876 5874 5873 5871 5869 5868 5866 5864 5862 5860 5858 5856 5854 5852 5850 5847 5845 5843 5841
5864 5866 5869 5871 5873 5874 5877 5876 5877 5878 5879 5880 5881 5881 5881 5881 5881 5880 5879 5879 5878 5877 5876 5874 5872 5870 5869 5867 5865 5863 5861 5859 5858 5856 5853 5852 5849 5847 5845 5842 5840 5838 5836 5834
5858 5861 5864 5866 5868 5869 5870 5870 5872 5873 5874 5875 5875 5875 5875 5875 5875 5874 5874 5873 5872 5871 5869 5868 5866 5864 5862 5860 5858 5857 5855 5853 5851 5849 5847 5844 5842 5840 5837 5835 5833 5831 5829 5826
5853 5855 5859 5860 5862 5864 5865 5865 5866 5868 5868 5869 5869 5869 5869 5869 5869 5869 5867 5867 5865 5864 5863 5861 5859 5857 5855 5853 5851 5850 5848 5846 5844 5842 5839 5837 5835 5832 5830 5828 5825 5823 5820 5818
5847 5849 5852 5854 5856 5857 5857 5858 5861 5863 5863 5862 5862 5863 5863 5863 5862 5862 5860 5859 5858 5857 5855 5854 5852 5850 5848 5846 5844 5842 5840 5839 5837 5835 5832 5830 5827 5825 5822 5820 5817 5815 5812 5809
5841 5843 5845 5847 5850 5852 5850 5852 5854 5855 5855 5855 5856 5856 5856 5856 5855 5854 5853 5852 5851 5849 5848 5846 5845 5843 5841 5839 5837 5835 5833 5831 5829 5827 5825 5822 5820 5817 5814 5812 5809 5806 5804 5801
5834 5837 5839 5841 5844 5843 5844 5845 5846 5847 5848 5848 5848 5849 5849 5848 5847 5846 5845 5844 5843 5841 5840 5838 5837 5835 5833 5831 5829 5828 5826 5823 5821 5819 5817 5815 5812 5809 5806 5804 5801 5798 5796 5793
5826 5829 5831 5833 5835 5836 5837 5838 5839 5840 5840 5841 5841 5841 5841 5840 5840 5839 5838 5836 5835 5833 5832 5830 5828 5826 5825 5823 5821 5819 5818 5816 5813 5811 5809 5806 5803 5801 5798 5795 5793 5790 5787 5785
5820 5822 5824 5826 5828 5829 5830 5831 5832 5832 5833 5833 5833 5833 5833 5832 5832 5831 5830 5828 5826 5825 5823 5821 5819 5818 5816 5814 5812 5811 5809 5807 5805 5803 5800 5798 5795 5792 5790 5787 5784 5782 5779 5776
5813 5815 5817 5819 5821 5822 5823 5824 5825 5825 5825 5825 5826 5825 5825 5824 5823 5822 5821 5820 5818 5816 5814 5812 5811 5809 5807 5805 5803 5802 5800 5798 5796 5794 5792 5789 5786 5783 5781 5778 5775 5773 5770 5767